STARLINK-34359, 64280

Orbit data source: Space-Track

STARLINK-34359, 64280 is a payload satellite owned by SpaceX/Seattle (US) in LEO that was launched on Wed, 04 Jun 2025 UTC via an FALCON 9 launch vehicle from the Air Force Western Test Range (AFWTR). Payload-class satellites include a variety of spacecraft equipped with specific instruments for various scientific and technological missions. These include communications satellites like Starlink; space stations such as the ISS; scientific satellites like the Hubble; Earth observation satellites from companies like Planet Labs, Umbra, and HawkEye 360; GPS; miniature CubeSats for education and research; and military/defense satellites.

Loading next visibility...
Identifier
64280, 2025-120AA
Orbit
LEO
Country
Flag of USUS
Related business
Manufacturer
SpaceX/Seattle
Mission
Operational Commercial Communications
Bus & Motor
STARLINK V2MO, Unknown motor
Mass
575 kg wet, ~530 kg dry
Launch date (UTC)
2025-06-04 (1 year ago)
Launch vehicle
FALCON 9
Launch site
Air Force Western Test Range (AFWTR)
Object type
Payload
Rocket body
Debris
Shape & HBR
Box + 2 Pan, 17.7 m
Radar Cross Section
36.964 m², Large (>1 m²)

Expand to show TLE details & history
Last TLE update: 23 hours ago

TLE from 23 hours ago
0 STARLINK-34359
1 64280U 25120AA  26170.90748398  .00013677  00000-0  47288-3 0  9990
2 64280  53.1594   2.0712 0001174 107.5211 252.5918 15.30212706 59565
Epoch: 2026-06-19T21:46Z
TLE epoch observation values (Epoch: 2026-06-19T21:46:46.615Z)
Latitude
-0.00005°
Longitude
127.24721°
Altitude
476.318 km
Speed
7.629 km/s
True Right ascension
00h 08m 17s
True Declination
0° 00' 00"
Sunlit
Object was in daylight at epoch
Visualization orbit readout
Latitude
Unknown
Longitude
Unknown
Altitude
Unknown
Speed
Unknown
Apparent Right ascension
Unknown
Apparent Declination
Unknown
Sunlit
N/A
Visualization observer readout
Local Sidereal Time
07:12:30
Azimuth
Unknown
Elevation
Unknown
Doppler factor
Unknown
Orbital elements
Apogee altitude
476.238 km
Perigee altitude
474.629 km
Semi-major axis
6,853.571 km
Eccentricity
0.00012
Inclination
53.1594°
RAAN
2.0712°
Arg. of periapsis
107.5211°
True anomaly
252.57896°
Mean anomaly
252.5918°
Eccentric anomaly
252.58538°
Mean motion
3.82532 °/min
Orbital period
94.11 mins
BSTAR
0.00047288
Loading maneuver chart data...
Computing Atmospheric mass density...
Loading historical data...
Loading historical data...
Loading historical data...
Loading historical data...
Loading historical data...
Loading historical data...
Loading historical data...

Documentation

Showing up to 5 results
|